KC7NGC-B Weather Reports


time (UTC)temp
C
wind
direction
speed
KPH
gust
KPH
rain 1hr
cm
rain 24hr
cm
rain mn
cm
humidity
%
barometer
mb
20260505052646 23 307 6.4 6.4 0.00 0.00 0.00 30 1007.8
20260505051626 21 295 6.4 6.4 0.00 0.00 0.00 36 1007.9
20260505050620 21 13 4.8 6.4 0.00 0.00 0.00 39 1007.7
20260505041631 24 297 4.8 4.8 0.00 0.00 0.00 31 1007.5
20260505040626 25 236 1.6 3.2 0.00 0.00 0.00 28 1007.4
20260505035626 25 235 3.2 4.8 0.00 0.00 0.00 28 1007.5
20260505034704 25 210 1.6 3.2 0.00 0.00 0.00 28 1007.2
20260505033625 25 220 3.2 3.2 0.00 0.00 0.00 28 1007.4
20260505032640 25 223 1.6 3.2 0.00 0.00 0.00 28 1007.2
20260505031721 25 223 1.6 4.8 0.00 0.00 0.00 28 1007.1
20260505030635 26 191 1.6 3.2 0.00 0.00 0.00 28 1007.0
20260505025632 27 212 0.0 3.2 0.00 0.00 0.00 26 1006.8
20260505024647 27 30 1.6 1.6 0.00 0.00 0.00 22 1006.9
20260505023628 28 56 1.6 3.2 0.00 0.00 0.00 22 1006.8
20260505022622 28 41 3.2 3.2 0.00 0.00 0.00 20 1006.9
20260505021622 29 146 1.6 1.6 0.00 0.00 0.00 19 1006.8
20260505020625 29 53 3.2 4.8 0.00 0.00 0.00 19 1007.1
20260505015636 29 134 1.6 3.2 0.00 0.00 0.00 19 1007.2
20260505014636 29 20 4.8 6.4 0.00 0.00 0.00 20 1007.2
20260505013636 30 7 1.6 3.2 0.00 0.00 0.00 18 1007.3
20260505012630 30 78 4.8 8.0 0.00 0.00 0.00 20 1007.4
20260505011628 30 25 6.4 9.7 0.00 0.00 0.00 20 1007.5
20260505010629 30 3 9.7 11.3 0.00 0.00 0.00 20 1007.4
20260505005647 30 30 6.4 8.0 0.00 0.00 0.00 20 1007.4
20260505004626 30 42 3.2 6.4 0.00 0.00 0.00 19 1007.7
20260505003624 30 16 11.3 14.5 0.00 0.00 0.00 19 1007.6
20260505002635 30 40 8.0 14.5 0.00 0.00 0.00 20 1007.7
20260505001638 30 52 14.5 24.1 0.00 0.00 0.00 20 1007.4
20260505000632 30 18 4.8 6.4 0.00 0.00 0.00 21 1007.5
20260504235630 29 105 3.2 6.4 0.00 0.00 0.00 20 1007.5
20260504234626 29 176 3.2 4.8 0.00 0.00 0.00 20 1007.7
20260504233629 28 58 3.2 8.0 0.00 0.00 0.00 23 1007.7
20260504232625 28 156 4.8 8.0 0.00 0.00 0.00 21 1007.6
20260504231627 28 138 3.2 4.8 0.00 0.00 0.00 22 1007.9
20260504230625 29 185 6.4 8.0 0.00 0.00 0.00 22 1008.0
20260504225636 29 131 1.6 3.2 0.00 0.00 0.00 22 1008.0
20260504224637 28 63 3.2 6.4 0.00 0.00 0.00 22 1008.1
20260504223634 29 134 4.8 8.0 0.00 0.00 0.00 23 1008.2
20260504222628 28 329 1.6 3.2 0.00 0.00 0.00 22 1008.3
20260504221652 29 71 9.7 17.7 0.00 0.00 0.00 22 1008.5
20260504220625 28 130 3.2 4.8 0.00 0.00 0.00 24 1008.5
20260504215650 28 145 4.8 8.0 0.00 0.00 0.00 22 1008.6
20260504214623 28 194 3.2 4.8 0.00 0.00 0.00 22 1008.8
20260504213618 29 342 16.1 22.5 0.00 0.00 0.00 21 1009.0
20260504212657 28 134 1.6 4.8 0.00 0.00 0.00 22 1009.0
20260504211636 28 136 3.2 4.8 0.00 0.00 0.00 22 1009.0
20260504210658 28 10 12.9 19.3 0.00 0.00 0.00 22 1009.2
20260504205631 28 26 1.6 3.2 0.00 0.00 0.00 24 1009.6
20260504204631 28 359 4.8 8.0 0.00 0.00 0.00 23 1009.7
20260504203625 28 352 8.0 14.5 0.00 0.00 0.00 24 1009.8
20260504202626 28 313 11.3 17.7 0.00 0.00 0.00 22 1009.8
20260504201642 28 319 11.3 20.9 0.00 0.00 0.00 22 1009.9
20260504200622 28 354 16.1 20.9 0.00 0.00 0.00 22 1009.9
20260504195640 28 345 12.9 16.1 0.00 0.00 0.00 23 1010.1
20260504194638 28 310 11.3 17.7 0.00 0.00 0.00 24 1010.2
20260504193636 27 28 6.4 11.3 0.00 0.00 0.00 26 1010.2
20260504192630 27 355 11.3 19.3 0.00 0.00 0.00 25 1010.2
20260504191628 27 344 11.3 16.1 0.00 0.00 0.00 25 1010.2
20260504190624 27 9 12.9 17.7 0.00 0.00 0.00 27 1010.4
20260504185627 26 360 12.9 19.3 0.00 0.00 0.00 26 1010.4
20260504184625 26 28 12.9 19.3 0.00 0.00 0.00 24 1010.4
20260504183618 26 31 12.9 17.7 0.00 0.00 0.00 26 1010.5
20260504182638 26 10 9.7 17.7 0.00 0.00 0.00 27 1010.6
20260504181642 25 349 12.9 17.7 0.00 0.00 0.00 27 1010.7
20260504180635 25 1 9.7 11.3 0.00 0.00 0.00 28 1010.6
20260504175648 25 340 11.3 17.7 0.00 0.00 0.00 27 1010.4
20260504174653 26 342 11.3 20.9 0.00 0.00 0.00 26 1010.5
20260504173624 25 5 14.5 20.9 0.00 0.00 0.00 27 1010.6
20260504172622 25 2 12.9 19.3 0.00 0.00 0.00 28 1010.5
20260504171621 25 357 11.3 16.1 0.00 0.00 0.00 29 1010.7
20260504170619 25 357 8.0 14.5 0.00 0.00 0.00 29 1010.7
20260504150633 20 314 3.2 6.4 0.00 0.00 0.00 44 1010.6
20260504140639 17 348 1.6 3.2 0.00 0.00 0.00 52 1010.3
20260504130623 15 264 0.0 1.6 0.00 0.00 0.00 51 1009.7
20260504110639 16 226 3.2 4.8 0.00 0.00 0.00 50 1009.6
20260504081634 20 301 8.0 9.7 0.00 0.00 0.00 33 1009.6
20260504080636 22 291 6.4 9.7 0.00 0.00 0.00 31 1009.7